Regional Weather Roundup
Issued by NWS Little Rock, AR

Home | Current Version | Previous Version | Text Only | Print | Product List | Glossary On
Versions: 1 2 3 4 5 6 7 8 9 10 11 12 13 14 15 16 17 18 19 20 21 22 23 24 25 26 27
000
ASUS44 KLZK 270805
RWRLZK

WEATHER ROUNDUP FOR ARKANSAS
NATIONAL WEATHER SERVICE LITTLE ROCK AR
300 AM CDT FRI MAY 27 2016

NOTE: "FAIR" INDICATES FEW OR NO CLOUDS BELOW 12,000 FEET WITH NO
SIGNIFICANT WEATHER AND/OR OBSTRUCTIONS TO VISIBILITY.

ARZ001-003-010-029-270900-
NORTHWEST ARKANSAS

CITY           SKY/WX    TMP DP  RH WIND       PRES   REMARKS
FAYETTEVILLE   CLOUDY    68  67  96 S7        29.82F
FORT SMITH     CLOUDY    70  66  87 CALM      29.81F
HARRISON       PTCLDY    65  64  97 S5        29.85F
BENTONVILLE    CLOUDY    68  63  83 S6        29.82F
ROGERS           N/A     66  65  96 SE7       29.82F
SILOAM SPGS    CLOUDY    66  59  77 S9        29.81F
HIGHFILL       CLOUDY    67  66  97 SE6       29.81
$$

ARZ004-005-016-270900-
NORTH CENTRAL ARKANSAS

CITY           SKY/WX    TMP DP  RH WIND       PRES   REMARKS
BATESVILLE     CLOUDY    70  66  88 E7        29.86F
FLIPPIN        CLOUDY   N/A N/A N/A SE3       29.82F
MTN HOME       CLOUDY    67  66  97 SE6       29.84F
$$

ARZ040-041-270900-
WEST CENTRAL ARKANSAS

CITY           SKY/WX    TMP DP  RH WIND       PRES   REMARKS
MENA           CLOUDY    73  70  88 CALM      29.84F
MOUNT IDA      MOCLDY    73  67  81 CALM      29.83S
$$

ARZ009-017-025-026-028-270900-
NORTHEAST ARKANSAS

CITY           SKY/WX    TMP DP  RH WIND       PRES   REMARKS
CORNING        TSTM      68  68 100 SW6       29.92R
JONESBORO      LGT RAIN  70  67  90 E9        29.88F
NEWPORT        TSTM      69  69 100 E15       29.86F FOG
WALNUT RIDGE   CLOUDY    66  64  94 E9        29.87F
BLYTHEVILLE    CLOUDY    69  68  96 SE3       29.92S
$$

ARZ022-023-033-042-044-270900-
CENTRAL ARKANSAS

CITY           SKY/WX    TMP DP  RH WIND       PRES   REMARKS
LITTLE ROCK    CLOUDY    72  69  90 E6        29.85F
N LITTLE ROCK    N/A     70  69  95 S3        29.83F
JACKSONVILLE   CLOUDY    71  71 100 E3        29.85F
SEARCY         CLOUDY    70  70 100 CALM      29.88S
HOT SPRINGS    CLOUDY    71  69  93 E3        29.85F
RUSSELLVILLE   MOCLDY    71  68  90 E3        29.83F
CLINTON        CLOUDY    70  70 100 CALM      29.86F
$$

ARZ036-270900-
EAST ARKANSAS

CITY           SKY/WX    TMP DP  RH WIND       PRES   REMARKS
WEST MEMPHIS   CLOUDY    69  67  93 SE7       29.90S
$$

ARZ050-053-066-070-073-270900-
SOUTHWEST ARKANSAS

CITY           SKY/WX    TMP DP  RH WIND       PRES   REMARKS
ARKADELPHIA    FAIR      69  69 100 CALM      29.85F FOG
CAMDEN         CLOUDY    72  68  88 SE3       29.85S FOG
TEXARKANA      CLOUDY    70  69  97 SE3       29.85R
EL DORADO      LGT RAIN  72  71  97 SE5       29.85F
DE QUEEN       CLOUDY    71  71 100 E5        29.81F FOG
$$

ARZ056-057-069-270900-
SOUTHEAST ARKANSAS

CITY           SKY/WX    TMP DP  RH WIND       PRES   REMARKS
PINE BLUFF     CLOUDY    73  70  90 SE7       29.86F
STUTTGART      CLOUDY    77  68  73 S12       29.87F
MONTICELLO     CLOUDY    75  71  87 SE7       29.86F

$$






USA.gov is the U.S. government's official web portal to all federal, state and local government web resources and services.